QPF
0.07 0.07 0.09 0.10 0.11 0.17 0.20 0.20 0.20 0.22 0.23 0.19 0.17 0.20 0.20 0.13 0.08 0.07 0.06 0.08 0.07 0.05 0.03 0.03 0.03 0.04 0.06 0.04 0.04 0.04 0.04 0.05 0.04 0.02 0.01 0.00 0.00 0.01 0.01 0.01 0.01 0.01 0.01
0.03 0.04 0.06 0.06 0.06 0.09 0.11 0.08 0.09 0.11 0.13 0.14 0.14 0.16 0.16 0.13 0.10 0.07 0.06 0.07 0.07 0.05 0.04 0.02 0.02 0.02 0.04 0.05 0.03 0.03 0.03 0.02 0.02 0.02 0.02 0.01 0.00 0.00 0.00 0.01 0.02 0.02 0.02
0.02 0.02 0.02 0.02 0.03 0.04 0.06 0.05 0.04 0.04 0.04 0.05 0.07 0.10 0.12 0.11 0.09 0.08 0.08 0.09 0.10 0.07 0.04 0.03 0.03 0.03 0.03 0.05 0.04 0.03 0.02 0.01 0.01 0.01 0.02 0.02 0.01 0.01 0.00 0.01 0.02 0.02 0.02
0.01 0.01 0.01 0.01 0.01 0.02 0.03 0.03 0.02 0.02 0.02 0.02 0.03 0.04 0.07 0.07 0.06 0.07 0.08 0.09 0.11 0.09 0.06 0.04 0.04 0.03 0.03 0.05 0.06 0.04 0.03 0.02 0.01 0.01 0.01 0.01 0.02 0.02 0.01 0.01 0.02 0.02 0.03
0.00 0.00 0.00 0.00 0.00 0.01 0.02 0.02 0.02 0.02 0.02 0.01 0.02 0.03 0.04 0.04 0.04 0.06 0.10 0.10 0.10 0.09 0.07 0.04 0.03 0.03 0.03 0.03 0.06 0.06 0.05 0.03 0.01 0.01 0.01 0.01 0.01 0.01 0.02 0.02 0.02 0.02 0.02
0.00 0.00 0.00 0.00 0.00 0.00 0.01 0.02 0.01 0.02 0.01 0.01 0.02 0.02 0.03 0.03 0.04 0.05 0.07 0.10 0.11 0.10 0.09 0.05 0.03 0.02 0.02 0.02 0.03 0.03 0.04 0.03 0.02 0.01 0.01 0.01 0.01 0.02 0.02 0.02 0.01 0.01 0.01
0.00 0.00 0.00 0.00 0.00 0.00 0.00 0.01 0.01 0.01 0.01 0.01 0.01 0.02 0.02 0.02 0.03 0.04 0.07 0.07 0.08 0.08 0.08 0.06 0.04 0.03 0.02 0.02 0.02 0.02 0.02 0.02 0.02 0.02 0.02 0.02 0.02 0.02 0.02 0.03 0.02 0.01 0.01
0.00 0.00 0.00 0.00 0.00 0.00 0.00 0.01 0.01 0.01 0.01 0.01 0.01 0.01 0.01 0.02 0.02 0.02 0.04 0.08 0.07 0.06 0.06 0.06 0.04 0.03 0.03 0.02 0.02 0.01 0.01 0.02 0.02 0.02 0.02 0.01 0.01 0.01 0.01 0.02 0.03 0.02 0.01
0.00 0.00 0.00 0.00 0.00 0.00 0.00 0.00 0.01 0.01 0.01 0.01 0.01 0.01 0.01 0.01 0.01 0.01 0.01 0.03 0.07 0.06 0.05 0.04 0.04 0.03 0.02 0.02 0.02 0.01 0.01 0.01 0.01 0.01 0.01 0.01 0.01 0.01 0.01 0.01 0.02 0.02 0.02
0.00 0.00 0.00 0.00 0.00 0.00 0.00 0.00 0.00 0.01 0.01 0.01 0.01 0.01 0.01 0.01 0.01 0.01 0.01 0.01 0.02 0.05 0.06 0.04 0.03 0.03 0.03 0.03 0.02 0.02 0.01 0.00 0.01 0.01 0.01 0.01 0.00 0.00 0.00 0.00 0.01 0.01 0.02
0.00 0.00 0.00 0.00 0.00 0.00 0.00 0.00 0.00 0.00 0.00 0.01 0.01 0.01 0.01 0.01 0.01 0.01 0.00 0.00 0.00 0.01 0.04 0.05 0.04 0.03 0.03 0.03 0.02 0.02 0.01 0.00 0.00 0.00 0.01 0.01 0.00 0.00 0.01 0.01 0.01 0.01 0.01
0.00 0.00 0.00 0.00 0.00 0.00 0.00 0.00 0.00 0.00 0.00 0.00 0.01 0.01 0.01 0.01 0.01 0.01 0.00 0.00 0.00 0.00 0.01 0.02 0.03 0.02 0.02 0.02 0.02 0.02 0.01 0.00 0.00 0.00 0.00 0.00 0.00 0.00 0.00 0.01 0.01 0.01 0.01
0.00 0.00 0.00 0.01 0.01 0.00 0.01 0.01 0.01 0.00 0.00 0.00 0.00 0.01 0.01 0.01 0.01 0.01 0.01 0.00 0.00 0.00 0.00 0.00 0.01 0.01 0.01 0.01 0.01 0.01 0.00 0.00 0.00 0.00 0.00 0.00 0.00 0.00 0.00 0.00 0.00 0.00 0.01
0.00 0.00 0.00 0.00 0.00 0.00 0.00 0.01 0.01 0.01 0.00 0.00 0.00 0.00 0.01 0.00 0.00 0.00 0.00 0.00 0.00 0.00 0.00 0.00 0.00 0.00 0.00 0.00 0.00 0.00 0.00 0.00 0.00 0.00 0.00 0.00 0.00 0.00 0.00 0.01 0.01 0.01 0.01
0.00 0.00 0.00 0.00 0.00 0.00 0.00 0.00 0.01 0.01 0.00 0.00 0.00 0.00 0.00 0.00 0.00 0.00 0.00 0.00 0.00 0.00 0.00 0.00 0.00 0.00 0.00 0.00 0.00 0.00 0.00 0.00 0.00 0.00 0.00 0.00 0.00 0.00 0.01 0.01 0.01 0.01 0.01
0.00 0.00 0.00 0.00 0.00 0.00 0.00 0.00 0.00 0.00 0.00 0.00 0.00 0.00 0.00 0.00 0.00 0.00 0.00 0.00 0.00 0.00 0.00 0.00 0.00 0.00 0.00 0.00 0.00 0.00 0.00 0.00 0.00 0.00 0.00 0.00 0.00 0.00 0.01 0.01 0.01 0.01 0.01
0.00 0.00 0.00 0.00 0.00 0.00 0.00 0.00 0.00 0.00 0.00 0.00 0.00 0.00 0.00 0.00 0.00 0.00 0.00 0.00 0.00 0.00 0.00 0.00 0.00 0.00 0.00 0.00 0.00 0.00 0.00 0.00 0.00 0.00 0.00 0.00 0.00 0.00 0.00 0.01 0.01 0.01 0.01
0.00 0.00 0.00 0.00 0.00 0.00 0.00 0.00 0.00 0.00 0.00 0.00 0.00 0.00 0.00 0.00 0.00 0.00 0.00 0.00 0.00 0.00 0.00 0.00 0.00 0.00 0.00 0.00 0.00 0.00 0.00 0.00 0.00 0.00 0.00 0.00 0.00 0.00 0.01 0.01 0.01 0.01 0.01
0.00 0.00 0.00 0.00 0.00 0.00 0.00 0.00 0.00 0.00 0.01 0.01 0.01 0.00 0.00 0.00 0.00 0.00 0.00 0.00 0.00 0.00 0.00 0.00 0.00 0.00 0.00 0.00 0.00 0.00 0.00 0.00 0.00 0.00 0.00 0.01 0.01 0.01 0.01 0.01 0.01 0.01 0.01
0.00 0.00 0.00 0.00 0.00 0.00 0.00 0.00 0.00 0.00 0.00 0.00 0.00 0.00 0.00 0.00 0.01 0.01 0.00 0.00 0.00 0.00 0.00 0.00 0.00 0.00 0.00 0.00 0.00 0.00 0.00 0.00 0.00 0.00 0.00 0.01 0.01 0.01 0.01 0.01 0.01 0.01 0.01
0.00 0.00 0.00 0.00 0.00 0.00 0.00 0.00 0.00 0.00 0.00 0.00 0.00 0.00 0.00 0.00 0.00 0.01 0.00 0.00 0.00 0.00 0.00 0.00 0.00 0.00 0.00 0.00 0.00 0.00 0.00 0.00 0.00 0.00 0.00 0.00 0.01 0.01 0.01 0.01 0.01 0.01 0.01
0.00 0.00 0.00 0.00 0.00 0.00 0.00 0.00 0.00 0.00 0.00 0.00 0.00 0.00 0.00 0.00 0.00 0.01 0.01 0.00 0.00 0.00 0.00 0.00 0.00 0.00 0.00 0.00 0.00 0.00 0.00 0.00 0.00 0.01 0.01 0.00 0.01 0.01 0.01 0.01 0.01 0.01 0.02
0.00 0.00 0.00 0.00 0.00 0.00 0.00 0.00 0.00 0.00 0.00 0.00 0.00 0.00 0.00 0.00 0.00 0.00 0.00 0.00 0.00 0.00 0.00 0.00 0.00 0.00 0.00 0.00 0.00 0.01 0.01 0.01 0.01 0.01 0.01 0.01 0.01 0.01 0.01 0.01 0.01 0.01 0.01
0.00 0.00 0.00 0.00 0.00 0.00 0.00 0.00 0.00 0.00 0.00 0.00 0.00 0.00 0.00 0.00 0.00 0.00 0.00 0.00 0.00 0.00 0.00 0.00 0.00 0.00 0.00 0.00 0.01 0.01 0.01 0.01 0.01 0.01 0.02 0.01 0.01 0.01 0.01 0.01 0.02 0.01 0.01
0.00 0.00 0.00 0.00 0.00 0.00 0.00 0.00 0.00 0.00 0.00 0.00 0.00 0.00 0.00 0.00 0.00 0.00 0.00 0.00 0.00 0.00 0.00 0.00 0.00 0.00 0.00 0.01 0.02 0.03 0.02 0.02 0.02 0.02 0.03 0.03 0.02 0.02 0.02 0.01 0.01 0.02 0.02
0.00 0.00 0.00 0.00 0.00 0.00 0.00 0.00 0.00 0.00 0.00 0.01 0.00 0.00 0.00 0.00 0.00 0.00 0.00 0.00 0.00 0.00 0.00 0.00 0.00 0.00 0.00 0.01 0.02 0.04 0.03 0.02 0.03 0.03 0.03 0.03 0.03 0.02 0.02 0.02 0.02 0.02 0.02
MSLP
1016.24 1016.26 1016.36 1016.54 1016.80 1017.12 1017.48 1017.87 1018.24 1018.58 1018.86 1019.09 1019.25 1019.37 1019.44 1019.49 1019.53 1019.57 1019.62 1019.67 1019.71 1019.74 1019.74 1019.70 1019.61 1019.47 1019.27 1019.03 1018.76 1018.45 1018.13 1017.80 1017.49 1017.19 1016.92 1016.70 1016.53 1016.42 1016.37 1016.38 1016.43 1016.52 1016.62
1016.11 1016.11 1016.17 1016.30 1016.52 1016.81 1017.16 1017.54 1017.92 1018.28 1018.60 1018.86 1019.06 1019.20 1019.29 1019.35 1019.39 1019.44 1019.49 1019.55 1019.61 1019.66 1019.69 1019.68 1019.62 1019.50 1019.33 1019.11 1018.85 1018.55 1018.25 1017.94 1017.63 1017.35 1017.09 1016.87 1016.68 1016.55 1016.47 1016.44 1016.46 1016.52 1016.62
1016.02 1016.01 1016.06 1016.16 1016.34 1016.60 1016.91 1017.27 1017.65 1018.02 1018.35 1018.63 1018.85 1019.00 1019.10 1019.17 1019.21 1019.25 1019.30 1019.36 1019.43 1019.50 1019.55 1019.56 1019.53 1019.44 1019.30 1019.10 1018.87 1018.61 1018.33 1018.05 1017.78 1017.52 1017.28 1017.06 1016.87 1016.71 1016.59 1016.52 1016.49 1016.52 1016.59
1015.95 1015.98 1016.03 1016.12 1016.26 1016.48 1016.75 1017.08 1017.43 1017.79 1018.13 1018.41 1018.64 1018.81 1018.91 1018.97 1019.01 1019.04 1019.08 1019.13 1019.20 1019.27 1019.33 1019.36 1019.35 1019.28 1019.17 1019.01 1018.81 1018.59 1018.36 1018.13 1017.90 1017.68 1017.47 1017.27 1017.08 1016.90 1016.74 1016.62 1016.54 1016.51 1016.54
1015.91 1015.99 1016.06 1016.15 1016.27 1016.44 1016.67 1016.95 1017.27 1017.61 1017.93 1018.21 1018.44 1018.60 1018.71 1018.77 1018.80 1018.81 1018.84 1018.87 1018.92 1018.99 1019.04 1019.08 1019.08 1019.04 1018.95 1018.83 1018.67 1018.50 1018.32 1018.15 1017.98 1017.81 1017.64 1017.46 1017.28 1017.09 1016.90 1016.74 1016.60 1016.52 1016.49
1015.90 1016.03 1016.13 1016.22 1016.32 1016.46 1016.64 1016.87 1017.15 1017.45 1017.74 1018.01 1018.24 1018.40 1018.51 1018.56 1018.58 1018.58 1018.59 1018.60 1018.63 1018.67 1018.71 1018.74 1018.75 1018.72 1018.65 1018.56 1018.45 1018.32 1018.20 1018.08 1017.97 1017.86 1017.73 1017.59 1017.43 1017.24 1017.04 1016.84 1016.66 1016.52 1016.44
1015.90 1016.09 1016.22 1016.32 1016.40 1016.50 1016.63 1016.81 1017.04 1017.30 1017.57 1017.82 1018.04 1018.21 1018.31 1018.37 1018.38 1018.36 1018.34 1018.33 1018.33 1018.34 1018.36 1018.37 1018.36 1018.33 1018.28 1018.21 1018.13 1018.05 1017.97 1017.91 1017.85 1017.79 1017.72 1017.62 1017.49 1017.32 1017.11 1016.90 1016.69 1016.51 1016.39
1015.90 1016.14 1016.29 1016.40 1016.47 1016.53 1016.62 1016.75 1016.94 1017.16 1017.40 1017.64 1017.85 1018.01 1018.13 1018.18 1018.18 1018.16 1018.12 1018.07 1018.04 1018.02 1018.00 1017.98 1017.96 1017.91 1017.86 1017.80 1017.73 1017.67 1017.63 1017.60 1017.59 1017.58 1017.55 1017.50 1017.40 1017.26 1017.08 1016.87 1016.66 1016.46 1016.32
1015.90 1016.16 1016.34 1016.44 1016.50 1016.55 1016.60 1016.70 1016.84 1017.03 1017.25 1017.47 1017.68 1017.84 1017.95 1018.01 1018.01 1017.97 1017.91 1017.84 1017.77 1017.71 1017.65 1017.60 1017.54 1017.47 1017.40 1017.33 1017.26 1017.21 1017.18 1017.17 1017.19 1017.21 1017.22 1017.21 1017.16 1017.06 1016.92 1016.74 1016.54 1016.36 1016.21
1015.85 1016.13 1016.33 1016.45 1016.51 1016.55 1016.59 1016.66 1016.78 1016.94 1017.14 1017.35 1017.55 1017.71 1017.82 1017.87 1017.86 1017.81 1017.73 1017.63 1017.53 1017.42 1017.33 1017.23 1017.13 1017.03 1016.93 1016.84 1016.75 1016.68 1016.64 1016.63 1016.65 1016.69 1016.73 1016.75 1016.75 1016.70 1016.61 1016.48 1016.33 1016.18 1016.05
1015.72 1016.03 1016.25 1016.39 1016.48 1016.53 1016.58 1016.65 1016.76 1016.91 1017.10 1017.29 1017.47 1017.63 1017.73 1017.77 1017.75 1017.68 1017.58 1017.45 1017.31 1017.17 1017.03 1016.89 1016.75 1016.61 1016.47 1016.33 1016.21 1016.11 1016.05 1016.02 1016.02 1016.05 1016.10 1016.15 1016.19 1016.20 1016.17 1016.10 1016.01 1015.91 1015.81
1015.50 1015.83 1016.09 1016.28 1016.41 1016.50 1016.59 1016.68 1016.80 1016.96 1017.13 1017.31 1017.48 1017.61 1017.69 1017.71 1017.67 1017.58 1017.45 1017.29 1017.11 1016.93 1016.75 1016.57 1016.39 1016.20 1016.02 1015.84 1015.67 1015.53 1015.42 1015.35 1015.33 1015.34 1015.39 1015.45 1015.52 1015.57 1015.60 1015.60 1015.58 1015.53 1015.49
1015.15 1015.52 1015.84 1016.10 1016.31 1016.48 1016.62 1016.76 1016.91 1017.07 1017.24 1017.40 1017.55 1017.65 1017.70 1017.69 1017.62 1017.50 1017.33 1017.14 1016.92 1016.71 1016.49 1016.26 1016.04 1015.81 1015.58 1015.36 1015.14 1014.95 1014.79 1014.67 1014.60 1014.59 1014.62 1014.68 1014.76 1014.84 1014.92 1014.98 1015.02 1015.04 1015.04
1014.68 1015.11 1015.51 1015.87 1016.17 1016.43 1016.66 1016.86 1017.05 1017.23 1017.40 1017.55 1017.67 1017.73 1017.74 1017.69 1017.58 1017.42 1017.21 1016.98 1016.74 1016.48 1016.22 1015.96 1015.70 1015.43 1015.15 1014.88 1014.61 1014.36 1014.15 1013.98 1013.86 1013.80 1013.80 1013.85 1013.93 1014.03 1014.14 1014.25 1014.34 1014.41 1014.47
1014.13 1014.64 1015.13 1015.59 1016.01 1016.37 1016.69 1016.96 1017.20 1017.41 1017.58 1017.71 1017.79 1017.82 1017.78 1017.68 1017.53 1017.32 1017.08 1016.81 1016.53 1016.24 1015.95 1015.65 1015.34 1015.03 1014.71 1014.39 1014.07 1013.76 1013.49 1013.26 1013.09 1012.99 1012.95 1012.97 1013.03 1013.14 1013.27 1013.40 1013.53 1013.65 1013.75
1013.58 1014.15 1014.73 1015.30 1015.82 1016.29 1016.70 1017.05 1017.34 1017.57 1017.74 1017.85 1017.89 1017.87 1017.79 1017.64 1017.44 1017.20 1016.92 1016.62 1016.30 1015.98 1015.65 1015.31 1014.96 1014.60 1014.24 1013.86 1013.49 1013.13 1012.80 1012.52 1012.30 1012.14 1012.05 1012.04 1012.08 1012.17 1012.30 1012.45 1012.60 1012.75 1012.89
1013.11 1013.73 1014.39 1015.03 1015.64 1016.20 1016.68 1017.09 1017.42 1017.66 1017.83 1017.92 1017.93 1017.87 1017.74 1017.55 1017.31 1017.02 1016.71 1016.38 1016.04 1015.68 1015.31 1014.94 1014.54 1014.14 1013.72 1013.29 1012.86 1012.45 1012.07 1011.73 1011.46 1011.25 1011.12 1011.07 1011.08 1011.15 1011.27 1011.41 1011.58 1011.75 1011.92
1012.82 1013.47 1014.15 1014.84 1015.50 1016.11 1016.65 1017.09 1017.44 1017.69 1017.84 1017.90 1017.88 1017.78 1017.61 1017.38 1017.11 1016.80 1016.46 1016.11 1015.73 1015.35 1014.94 1014.52 1014.08 1013.62 1013.15 1012.67 1012.18 1011.72 1011.29 1010.90 1010.58 1010.34 1010.17 1010.08 1010.06 1010.10 1010.20 1010.34 1010.50 1010.69 1010.88
1012.80 1013.42 1014.09 1014.78 1015.45 1016.06 1016.61 1017.06 1017.40 1017.64 1017.76 1017.80 1017.74 1017.60 1017.40 1017.14 1016.84 1016.51 1016.16 1015.79 1015.39 1014.98 1014.54 1014.08 1013.59 1013.08 1012.55 1012.01 1011.47 1010.96 1010.48 1010.06 1009.71 1009.42 1009.22 1009.10 1009.06 1009.08 1009.16 1009.29 1009.45 1009.64 1009.86
1013.07 1013.61 1014.22 1014.86 1015.49 1016.07 1016.58 1017.00 1017.31 1017.51 1017.61 1017.60 1017.50 1017.33 1017.10 1016.83 1016.51 1016.17 1015.81 1015.42 1015.01 1014.57 1014.11 1013.60 1013.07 1012.51 1011.93 1011.34 1010.76 1010.20 1009.69 1009.24 1008.86 1008.55 1008.33 1008.19 1008.13 1008.13 1008.20 1008.31 1008.47 1008.67 1008.90
1013.58 1014.02 1014.53 1015.08 1015.62 1016.13 1016.58 1016.94 1017.19 1017.34 1017.38 1017.33 1017.20 1016.99 1016.74 1016.44 1016.12 1015.78 1015.41 1015.02 1014.60 1014.14 1013.65 1013.11 1012.54 1011.93 1011.31 1010.68 1010.06 1009.48 1008.94 1008.47 1008.08 1007.76 1007.54 1007.39 1007.32 1007.31 1007.37 1007.47 1007.63 1007.83 1008.07
1014.27 1014.58 1014.97 1015.40 1015.83 1016.24 1016.59 1016.86 1017.04 1017.12 1017.11 1017.00 1016.83 1016.59 1016.31 1016.01 1015.68 1015.33 1014.96 1014.57 1014.14 1013.67 1013.16 1012.60 1012.00 1011.36 1010.71 1010.05 1009.41 1008.80 1008.26 1007.78 1007.38 1007.07 1006.85 1006.70 1006.63 1006.62 1006.68 1006.78 1006.93 1007.14 1007.39
1015.01 1015.20 1015.45 1015.75 1016.06 1016.35 1016.59 1016.77 1016.86 1016.86 1016.78 1016.62 1016.41 1016.14 1015.84 1015.52 1015.18 1014.83 1014.47 1014.07 1013.64 1013.17 1012.64 1012.07 1011.45 1010.79 1010.12 1009.44 1008.79 1008.18 1007.64 1007.16 1006.78 1006.48 1006.26 1006.12 1006.06 1006.06 1006.11 1006.22 1006.37 1006.58 1006.84
1015.68 1015.75 1015.88 1016.05 1016.24 1016.41 1016.55 1016.62 1016.63 1016.56 1016.41 1016.20 1015.95 1015.65 1015.33 1015.00 1014.66 1014.30 1013.93 1013.53 1013.09 1012.61 1012.08 1011.50 1010.87 1010.20 1009.52 1008.85 1008.20 1007.59 1007.05 1006.59 1006.22 1005.94 1005.74 1005.61 1005.56 1005.56 1005.62 1005.74 1005.90 1006.11 1006.38
1016.17 1016.15 1016.18 1016.25 1016.32 1016.39 1016.42 1016.41 1016.33 1016.19 1016.00 1015.74 1015.45 1015.13 1014.80 1014.45 1014.10 1013.74 1013.36 1012.95 1012.51 1012.02 1011.48 1010.89 1010.25 1009.58 1008.90 1008.23 1007.59 1007.00 1006.47 1006.03 1005.67 1005.40 1005.22 1005.11 1005.07 1005.09 1005.17 1005.29 1005.46 1005.69 1005.97
1016.43 1016.35 1016.30 1016.28 1016.27 1016.24 1016.19 1016.10 1015.96 1015.77 1015.53 1015.25 1014.94 1014.60 1014.25 1013.90 1013.53 1013.16 1012.76 1012.34 1011.88 1011.38 1010.83 1010.22 1009.58 1008.91 1008.23 1007.57 1006.94 1006.36 1005.85 1005.43 1005.09 1004.84 1004.67 1004.58 1004.56 1004.60 1004.69 1004.84 1005.03 1005.28 1005.58
Thickness
5620 5620 5621 5622 5623 5622 5622 5623 5623 5623 5623 5625 5626 5626 5627 5626 5626 5628 5630 5632 5634 5634 5635 5636 5636 5635 5635 5635 5634 5633 5633 5633 5632 5632 5634 5637 5638 5640 5640 5640 5640 5640 5640
5615 5615 5616 5617 5618 5618 5618 5618 5618 5619 5617 5618 5617 5618 5618 5619 5619 5620 5622 5624 5627 5628 5629 5629 5629 5628 5628 5628 5627 5626 5626 5625 5625 5625 5626 5629 5631 5633 5633 5633 5632 5633 5632
5612 5612 5612 5613 5613 5613 5612 5612 5613 5614 5613 5612 5611 5611 5611 5611 5613 5614 5616 5618 5619 5620 5622 5622 5622 5622 5622 5621 5621 5620 5619 5619 5618 5618 5619 5620 5623 5625 5626 5625 5625 5625 5625
5607 5607 5608 5609 5609 5609 5608 5609 5609 5610 5609 5607 5608 5608 5608 5608 5608 5609 5611 5611 5612 5614 5615 5615 5615 5616 5615 5614 5614 5614 5613 5612 5611 5611 5611 5612 5614 5613 5617 5619 5617 5617 5616
5602 5602 5601 5602 5603 5602 5602 5602 5604 5604 5603 5602 5602 5602 5602 5602 5602 5603 5603 5605 5607 5607 5608 5608 5608 5608 5608 5607 5607 5606 5605 5605 5605 5605 5604 5604 5604 5605 5606 5610 5611 5610 5608
5596 5596 5596 5595 5595 5595 5595 5595 5596 5595 5595 5595 5595 5595 5595 5595 5596 5597 5598 5599 5600 5600 5602 5601 5601 5601 5601 5600 5600 5599 5598 5598 5597 5597 5597 5598 5598 5599 5599 5601 5602 5603 5602
5591 5590 5590 5589 5588 5587 5587 5588 5589 5589 5588 5588 5588 5589 5589 5590 5591 5591 5592 5593 5593 5594 5594 5594 5594 5594 5593 5593 5592 5592 5592 5591 5591 5590 5590 5591 5590 5590 5590 5591 5592 5593 5594
5584 5582 5582 5581 5581 5580 5580 5581 5583 5583 5582 5583 5583 5583 5583 5583 5584 5584 5584 5585 5586 5587 5585 5585 5586 5586 5586 5585 5585 5584 5584 5584 5584 5583 5583 5583 5582 5582 5582 5582 5582 5584 5586
5574 5575 5574 5574 5574 5573 5572 5573 5574 5574 5575 5575 5576 5576 5576 5576 5576 5576 5576 5577 5577 5577 5577 5578 5578 5578 5577 5577 5577 5577 5577 5577 5576 5576 5575 5575 5575 5574 5574 5574 5573 5573 5578
5566 5566 5566 5566 5566 5565 5564 5564 5565 5565 5566 5566 5567 5567 5567 5567 5568 5568 5568 5568 5568 5568 5569 5569 5569 5569 5569 5569 5569 5569 5568 5568 5568 5567 5567 5567 5567 5566 5566 5565 5565 5565 5566
5558 5558 5558 5558 5557 5556 5556 5556 5556 5556 5557 5557 5557 5557 5558 5558 5558 5558 5559 5559 5560 5560 5560 5560 5560 5561 5561 5561 5561 5561 5560 5560 5560 5559 5559 5559 5558 5558 5558 5558 5557 5557 5557
5548 5548 5547 5547 5547 5547 5547 5547 5547 5547 5547 5547 5547 5548 5548 5549 5549 5550 5550 5550 5550 5551 5551 5551 5551 5552 5552 5552 5552 5552 5551 5551 5551 5551 5551 5550 5549 5549 5549 5549 5549 5549 5548
5538 5538 5538 5538 5538 5537 5537 5537 5537 5537 5537 5537 5538 5539 5539 5539 5539 5540 5540 5540 5540 5541 5541 5542 5542 5542 5542 5542 5542 5543 5542 5542 5542 5542 5542 5542 5541 5541 5541 5541 5541 5541 5540
5529 5529 5529 5529 5528 5528 5528 5527 5527 5527 5526 5526 5527 5528 5529 5529 5529 5529 5529 5530 5530 5531 5532 5532 5532 5533 5533 5533 5533 5532 5532 5532 5532 5532 5532 5532 5532 5533 5532 5532 5532 5532 5531
5519 5518 5519 5519 5519 5518 5517 5517 5516 5516 5515 5516 5516 5517 5518 5518 5519 5519 5519 5520 5520 5521 5521 5522 5522 5522 5523 5523 5522 5522 5522 5523 5523 5523 5523 5523 5522 5522 5522 5522 5523 5522 5522
5511 5509 5508 5508 5508 5507 5506 5505 5505 5505 5505 5506 5506 5506 5507 5507 5508 5508 5509 5509 5510 5510 5511 5512 5512 5512 5512 5512 5511 5511 5512 5513 5513 5513 5513 5513 5512 5512 5511 5511 5511 5511 5512
5500 5499 5498 5497 5496 5496 5495 5494 5494 5493 5493 5494 5494 5495 5495 5496 5496 5497 5497 5498 5499 5500 5500 5501 5502 5503 5503 5501 5501 5500 5500 5502 5503 5503 5503 5503 5503 5501 5502 5502 5501 5501 5500
5488 5488 5487 5485 5484 5483 5482 5482 5481 5481 5481 5482 5483 5483 5483 5484 5484 5485 5486 5487 5488 5488 5489 5489 5490 5491 5491 5490 5489 5488 5489 5490 5491 5492 5492 5492 5492 5492 5491 5492 5493 5493 5493
5477 5476 5474 5473 5471 5471 5470 5469 5469 5469 5469 5470 5471 5471 5471 5472 5472 5473 5475 5475 5475 5476 5476 5477 5477 5479 5480 5478 5477 5476 5477 5479 5480 5480 5480 5480 5480 5480 5478 5479 5481 5482 5483
5462 5461 5460 5459 5459 5459 5457 5457 5458 5458 5458 5458 5459 5459 5459 5460 5461 5461 5462 5462 5462 5463 5463 5464 5465 5466 5467 5466 5464 5462 5464 5467 5469 5469 5469 5467 5467 5467 5466 5466 5469 5471 5472
5448 5447 5447 5446 5446 5445 5444 5445 5446 5446 5446 5445 5446 5446 5446 5447 5448 5448 5448 5448 5449 5450 5451 5451 5453 5453 5453 5453 5451 5449 5450 5453 5455 5456 5457 5457 5455 5454 5453 5453 5456 5459 5459
5434 5433 5433 5433 5433 5432 5431 5433 5434 5434 5432 5432 5433 5434 5434 5434 5434 5434 5435 5435 5435 5436 5437 5438 5440 5440 5440 5440 5439 5437 5436 5437 5439 5442 5444 5444 5442 5441 5441 5442 5444 5445 5444
5420 5419 5419 5420 5420 5419 5418 5420 5422 5420 5419 5420 5420 5421 5421 5421 5421 5420 5421 5422 5422 5422 5424 5425 5427 5428 5428 5427 5426 5425 5425 5425 5425 5428 5429 5429 5429 5428 5429 5430 5431 5432 5432
5406 5406 5405 5406 5407 5406 5406 5406 5407 5406 5406 5407 5408 5408 5408 5408 5408 5408 5408 5408 5410 5411 5411 5412 5413 5415 5415 5415 5414 5414 5414 5413 5413 5414 5415 5415 5415 5415 5417 5418 5419 5420 5421
5392 5392 5392 5394 5395 5394 5395 5394 5393 5393 5393 5394 5394 5394 5394 5395 5396 5396 5397 5397 5399 5398 5398 5400 5400 5401 5404 5405 5402 5401 5402 5402 5402 5401 5402 5403 5404 5405 5407 5407 5407 5408 5409
5379 5379 5379 5380 5381 5382 5382 5382 5380 5380 5380 5381 5382 5382 5382 5382 5382 5383 5385 5385 5384 5385 5384 5385 5385 5389 5389 5390 5390 5389 5389 5389 5389 5389 5391 5393 5394 5396 5397 5397 5398 5398 5398